Location: York
(31.8935°S, 116.7682°E)
Time: 22:10:37
(UTC+08:00)

Envisat - Pass Details

Date: 18 May 2021
Orbit: 764 x 766 km, 98.1° (Epoch: 13 June)

Event Time Altitude Azimuth Distance (km) Brightness Sun altitude
Rises 06:13:37 0° 329° (NNW) 3,218 6.1 -9.3°
Reaches altitude 10° 06:17:05 10° 304° (WNW) 2,304 5.1 -8.6°
Maximum altitude 06:19:39 14° 273° (W) 2,048 4.6 -8.1°
Drops below altitude 10° 06:22:15 10° 242° (WSW) 2,320 4.8 -7.6°
Enters shadow 06:23:20 - 232° (SW) 2,562 5.1 -7.4°
